Home > Weather > Valletta > Past weeks

Flag for Malta Past Weather in Valletta, Malta — Yesterday and Last 2 Weeks

Now
86 °F

Passing clouds.


Feels Like: 87 °F
Forecast: 73 / 88 °F
Wind: 13 mph from Southwest

Location: Luqa

Current Time: Jul 23, 2016 at 3:22:50 PM

Latest Report: Jul 23, 2016 at 2:45 PM


Visibility: N/A

Pressure: 30.01 "Hg

Humidity: 46%

Dew Point: 63 °F

Location of VallettaLocation

Past Weather in Valletta — Graph

°F

Valletta Temperature Yesterday

Maximum temperature yesterday: 88 °F (at 11:45 AM)
Minimum temperature yesterday: 73 °F (at 2:15 AM)
Average temperature yesterday: 81 °F

High & Low Weather Summary for the Past Weeks

 TemperatureHumidityPressure
High93 °F (Jul 9, 3:15 PM)94% (Jul 9, 11:45 PM)30.12 "Hg (Jul 9, 11:45 PM)
Low68 °F (Jul 17, 3:15 AM)19% (Jul 9, 5:15 PM)29.89 "Hg (Jul 12, 4:45 PM)
Average79 °F56%30.00 "Hg
* Reported Jul 8 2:15 PM — Jul 23 2:15 PM, Valletta, Weather by CustomWeather, © 2016

Note: Actual official high and low records may vary slightly from our data, if they occured in-between our weather recording intervals... More about our weather records

Advertising

Valletta Weather History for the Previous 24 Hours

Scroll right to see more
 ConditionsComfort  
Time TempWeatherWind HumidityBarometerVisibility
2:15 PM
Sat, Jul 23
86 °FPassing clouds.13 mph46%30.01 "HgN/A
1:45 PM84 °FPassing clouds.13 mph48%30.01 "HgN/A
1:15 PM84 °FPassing clouds.10 mph51%30.01 "HgN/A
12:45 PM84 °FPassing clouds.9 mph48%30.04 "HgN/A
12:15 PM84 °FPassing clouds.9 mph45%30.04 "HgN/A
11:45 AM82 °FPassing clouds.9 mph45%30.04 "HgN/A
11:15 AM82 °FPassing clouds.8 mph51%30.04 "HgN/A
10:45 AM82 °FSunny.9 mph55%30.04 "Hg10 mi
10:15 AM81 °FPassing clouds.9 mph62%30.04 "HgN/A
9:45 AM81 °FPassing clouds.8 mph62%30.01 "HgN/A
9:15 AM81 °FPassing clouds.9 mph62%30.01 "HgN/A
8:45 AM79 °FPassing clouds.9 mph65%30.01 "HgN/A
8:15 AM77 °FPassing clouds.8 mph69%30.01 "HgN/A
7:45 AM77 °FPassing clouds.6 mph65%30.01 "HgN/A
7:15 AM75 °FSunny.7 mph69%30.01 "Hg10 mi
6:45 AM73 °FClear.3 mph65%29.98 "Hg10 mi
6:15 AM70 °FClear.5 mph78%29.98 "Hg10 mi
5:45 AM72 °FClear.5 mph73%29.98 "Hg10 mi
5:15 AM72 °FClear.3 mph73%29.98 "Hg10 mi
4:45 AM73 °FClear.3 mph61%29.98 "Hg10 mi
4:15 AM73 °FClear.5 mph57%29.98 "Hg10 mi
3:45 AM73 °FClear.3 mph53%29.98 "Hg10 mi
3:15 AM73 °FClear.3 mph47%29.98 "Hg10 mi
2:45 AM73 °FClear.2 mph50%30.01 "Hg10 mi
2:15 AM73 °FClear.2 mph53%30.01 "Hg10 mi
1:45 AM75 °FClear.1 mph50%30.01 "Hg10 mi
1:15 AM75 °FClear.1 mph50%30.01 "Hg10 mi
12:45 AM75 °FClear.2 mph50%30.01 "Hg10 mi
12:15 AM75 °FClear.2 mph54%30.04 "Hg10 mi
11:45 PM
Fri, Jul 22
77 °FClear.2 mph51%30.04 "Hg10 mi
11:15 PM75 °FClear.1 mph57%30.04 "Hg10 mi
10:45 PM77 °FClear.2 mph54%30.04 "Hg10 mi
10:15 PM77 °FClear.2 mph57%30.04 "Hg10 mi
9:45 PM79 °FClear.3 mph58%30.04 "Hg10 mi
9:15 PM79 °FClear.3 mph54%30.04 "Hg10 mi
8:45 PM79 °FSunny.5 mph45%30.01 "Hg10 mi
8:15 PM82 °FSunny.6 mph40%30.01 "Hg10 mi
7:45 PM84 °FPassing clouds.6 mph35%30.01 "HgN/A
7:15 PM86 °FPassing clouds.7 mph31%30.01 "HgN/A
6:45 PM86 °FSunny.6 mph31%30.01 "Hg10 mi
6:15 PM86 °FSunny.8 mph33%30.01 "Hg10 mi
5:45 PM86 °FSunny.8 mph35%30.01 "Hg10 mi
5:15 PM86 °FPassing clouds.9 mph38%30.01 "HgN/A
4:45 PM86 °FPassing clouds.9 mph40%30.01 "HgN/A
4:15 PM86 °FSunny.9 mph40%30.04 "Hg10 mi
3:45 PM86 °FSunny.9 mph38%30.04 "Hg10 mi
3:15 PM88 °FSunny.10 mph33%30.04 "Hg10 mi
Weather by CustomWeather, © 2016

See weather overviewHow to use our weather pages